User: anonymous   Login
Location: Maiden_LMO
(35.5760°N, 81.2120°W)
Time: 07:28:58
(UTC-05:00)
Language:

Cosmos 2278 Rocket - Orbit

View from above orbital plane
View from above orbital plane
View from above satellite
View from above satellite

Ground track
Ground track

The orbit data is extracted from the following two-line orbital elements,

1 23088U 94023B   17345.89547191 +.00000238 +00000-0 +14829-3 0  9993
2 23088 071.0009 269.0690 0004373 220.0382 140.0419 14.14663628220404
Epoch (UTC): 11 December 2017 21:29:28
Eccentricity: 0.0004373
inclination: 71.0009°
perigee height: 840 km
apogee height: 846 km
right ascension of ascending node: 269.0690°
argument of perigee: 220.0382°
revolutions per day: 14.14663628
mean anomaly at epoch: 140.0419°
orbit number at epoch: 22040

The dashed part of the orbit path shows where the satellite is in the earth's shadow,  

DLR